When you browse on this site, cookies collect data to enhance your experience and personalize the content and advertising you see.
Visit our Privacy Policy to learn more. By continuing to use the site, you agree to this use of cookies and data.
EN

Hourly Weather Guildford

Today, 23 September, Wednesday

Time Temperature Precipitation Wind Pressure Humidity
00:00 +14°C° 0 mm 3 mps 745 mmHg 93%
01:00 +14°C° 0.2 mm 3 mps 744 mmHg 94%
02:00 +14°C° 0.2 mm 3 mps 744 mmHg 94%
03:00 +15°C° 0.2 mm 2 mps 743 mmHg 94%
04:00 +14°C° 0.4 mm 3 mps 743 mmHg 93%
05:00 +14°C° 0.4 mm 3 mps 743 mmHg 92%
06:00 +15°C° 0.4 mm 4 mps 742 mmHg 91%
07:00 +15°C° 0.1 mm 5 mps 742 mmHg 87%
08:00 +16°C° 0.1 mm 5 mps 743 mmHg 83%
09:00 +16°C° 0.1 mm 6 mps 743 mmHg 79%
10:00 +16°C° 0.2 mm 6 mps 743 mmHg 78%
11:00 +16°C° 0.2 mm 6 mps 742 mmHg 77%
12:00 +16°C° 0.2 mm 6 mps 742 mmHg 76%
13:00 +17°C° 0.5 mm 5 mps 742 mmHg 74%
14:00 +17°C° 0.5 mm 5 mps 742 mmHg 73%
15:00 +17°C° 0.5 mm 5 mps 741 mmHg 71%
16:00 +17°C° 0.3 mm 4 mps 741 mmHg 76%
17:00 +14°C° 0.3 mm 4 mps 741 mmHg 81%
18:00 +13°C° 0.3 mm 3 mps 741 mmHg 86%
19:00 +12°C° 0.3 mm 4 mps 741 mmHg 84%
20:00 +10°C° 0.3 mm 5 mps 741 mmHg 82%
21:00 +10°C° 0.3 mm 6 mps 742 mmHg 80%
22:00 +9°C° 0 mm 5 mps 742 mmHg 81%
23:00 +8°C° 0 mm 5 mps 742 mmHg 83%

Tomorrow, 24 September, Thursday

Time Temperature Precipitation Wind Pressure Humidity
00:00 +7°C° 0 mm 4 mps 743 mmHg 84%
01:00 +7°C° 0 mm 4 mps 742 mmHg 84%
02:00 +7°C° 0 mm 3 mps 742 mmHg 85%
03:00 +7°C° 0 mm 3 mps 742 mmHg 85%
04:00 +7°C° 1.1 mm 4 mps 741 mmHg 85%
05:00 +9°C° 1.1 mm 6 mps 740 mmHg 86%
06:00 +10°C° 1.1 mm 7 mps 740 mmHg 86%
07:00 +10°C° 0.4 mm 7 mps 740 mmHg 80%
08:00 +11°C° 0.4 mm 7 mps 739 mmHg 73%
09:00 +11°C° 0.4 mm 7 mps 739 mmHg 67%
10:00 +12°C° 0.1 mm 7 mps 739 mmHg 64%
11:00 +13°C° 0.1 mm 6 mps 739 mmHg 60%
12:00 +13°C° 0.1 mm 6 mps 739 mmHg 57%
13:00 +13°C° 0.1 mm 6 mps 739 mmHg 57%
14:00 +12°C° 0.1 mm 7 mps 739 mmHg 57%
15:00 +12°C° 0.1 mm 7 mps 738 mmHg 57%
16:00 +12°C° 0 mm 5 mps 737 mmHg 60%
17:00 +11°C° 0 mm 4 mps 737 mmHg 63%
18:00 +10°C° 0 mm 3 mps 736 mmHg 66%
19:00 +9°C° 0.1 mm 3 mps 736 mmHg 68%
20:00 +9°C° 0.1 mm 3 mps 736 mmHg 71%
21:00 +8°C° 0.1 mm 2 mps 736 mmHg 74%
22:00 +8°C° 0.8 mm 3 mps 736 mmHg 78%
23:00 +8°C° 0.8 mm 3 mps 736 mmHg 82%

Day after tomorrow, 25 September, Friday

Time Temperature Precipitation Wind Pressure Humidity
00:00 +8°C° 0.8 mm 3 mps 736 mmHg 86%
01:00 +7°C° 0.3 mm 4 mps 737 mmHg 84%
02:00 +7°C° 0.3 mm 5 mps 738 mmHg 83%
03:00 +5°C° 0.3 mm 6 mps 738 mmHg 81%
04:00 +5°C° 0 mm 6 mps 740 mmHg 82%
05:00 +5°C° 0 mm 6 mps 741 mmHg 83%
06:00 +4°C° 0 mm 6 mps 742 mmHg 85%
07:00 +5°C° 0 mm 6 mps 743 mmHg 80%
08:00 +6°C° 0 mm 7 mps 744 mmHg 75%
09:00 +7°C° 0 mm 8 mps 746 mmHg 70%
10:00 +9°C° 0 mm 8 mps 746 mmHg 62%
11:00 +10°C° 0 mm 9 mps 747 mmHg 54%
12:00 +11°C° 0 mm 9 mps 748 mmHg 45%
13:00 +12°C° 0 mm 9 mps 749 mmHg 45%
14:00 +12°C° 0 mm 8 mps 749 mmHg 46%
15:00 +12°C° 0 mm 8 mps 750 mmHg 46%
16:00 +11°C° 0 mm 7 mps 750 mmHg 50%
17:00 +9°C° 0 mm 5 mps 751 mmHg 55%
18:00 +8°C° 0 mm 4 mps 751 mmHg 60%
19:00 +7°C° 0 mm 4 mps 752 mmHg 63%
20:00 +7°C° 0 mm 4 mps 753 mmHg 66%
21:00 +6°C° 0 mm 4 mps 753 mmHg 69%
22:00 +6°C° 0 mm 4 mps 753 mmHg 72%
23:00 +6°C° 0 mm 5 mps 754 mmHg 75%

26 September, Saturday

Time Temperature Precipitation Wind Pressure Humidity
00:00 +6°C° 0 mm 5 mps 754 mmHg 78%
01:00 +6°C° 0 mm 5 mps 754 mmHg 78%
02:00 +5°C° 0 mm 5 mps 754 mmHg 78%
03:00 +5°C° 0 mm 5 mps 754 mmHg 78%
04:00 +5°C° 0 mm 4 mps 754 mmHg 78%
05:00 +5°C° 0 mm 4 mps 754 mmHg 77%
06:00 +5°C° 0 mm 4 mps 754 mmHg 77%
07:00 +6°C° 0 mm 4 mps 754 mmHg 73%
08:00 +7°C° 0 mm 4 mps 755 mmHg 68%
09:00 +8°C° 0 mm 4 mps 755 mmHg 64%
10:00 +10°C° 0 mm 4 mps 754 mmHg 63%
11:00 +10°C° 0 mm 4 mps 754 mmHg 63%
12:00 +11°C° 0 mm 4 mps 754 mmHg 62%
13:00 +10°C° 0 mm 3 mps 753 mmHg 66%
14:00 +9°C° 0 mm 2 mps 753 mmHg 69%
15:00 +10°C° 0 mm 1 mps 753 mmHg 72%
16:00 +10°C° 0 mm 1 mps 752 mmHg 73%
17:00 +9°C° 0 mm 1 mps 752 mmHg 74%
18:00 +9°C° 0 mm 1 mps 752 mmHg 74%
19:00 +8°C° 0 mm 1 mps 753 mmHg 77%
20:00 +7°C° 0 mm 2 mps 753 mmHg 80%
21:00 +6°C° 0 mm 2 mps 753 mmHg 83%
22:00 +5°C° 0 mm 2 mps 754 mmHg 81%
23:00 +5°C° 0 mm 2 mps 754 mmHg 79%

27 September, Sunday

Time Temperature Precipitation Wind Pressure Humidity
00:00 +5°C° 0 mm 2 mps 754 mmHg 78%
01:00 +4°C° 0 mm 2 mps 754 mmHg 75%
02:00 +4°C° 0 mm 2 mps 754 mmHg 72%
03:00 +4°C° 0 mm 2 mps 754 mmHg 70%
04:00 +3°C° 0 mm 2 mps 754 mmHg 71%
05:00 +3°C° 0 mm 2 mps 755 mmHg 73%
06:00 +3°C° 0 mm 2 mps 755 mmHg 74%
07:00 +4°C° 0 mm 2 mps 755 mmHg 68%
08:00 +6°C° 0 mm 2 mps 756 mmHg 62%
09:00 +8°C° 0 mm 2 mps 756 mmHg 55%
10:00 +9°C° 0 mm 2 mps 756 mmHg 51%
11:00 +10°C° 0 mm 3 mps 756 mmHg 46%
12:00 +12°C° 0 mm 3 mps 756 mmHg 41%
13:00 +12°C° 0 mm 3 mps 756 mmHg 41%
14:00 +13°C° 0 mm 3 mps 756 mmHg 41%
15:00 +13°C° 0 mm 3 mps 755 mmHg 40%
16:00 +12°C° 0 mm 2 mps 755 mmHg 46%
17:00 +10°C° 0 mm 2 mps 755 mmHg 52%
18:00 +9°C° 0 mm 1 mps 755 mmHg 57%
19:00 +9°C° 0 mm 1 mps 756 mmHg 60%
20:00 +8°C° 0 mm 1 mps 756 mmHg 62%
21:00 +7°C° 0 mm 1 mps 756 mmHg 65%
22:00 +7°C° 0 mm 1 mps 756 mmHg 67%
23:00 +7°C° 0 mm 1 mps 756 mmHg 69%

28 September, Monday

Time Temperature Precipitation Wind Pressure Humidity
00:00 +7°C° 0 mm 1 mps 756 mmHg 71%
01:00 +7°C° 0 mm 1 mps 756 mmHg 76%
02:00 +7°C° 0 mm 1 mps 755 mmHg 81%
03:00 +6°C° 0 mm 1 mps 755 mmHg 87%
04:00 +7°C° 0 mm 1 mps 755 mmHg 88%
05:00 +7°C° 0 mm 1 mps 755 mmHg 90%
06:00 +7°C° 0 mm 1 mps 755 mmHg 92%
07:00 +9°C° 0 mm 1 mps 755 mmHg 86%
08:00 +11°C° 0 mm 1 mps 756 mmHg 80%
09:00 +13°C° 0 mm 2 mps 756 mmHg 75%
10:00 +14°C° 0 mm 2 mps 756 mmHg 71%
11:00 +16°C° 0 mm 2 mps 756 mmHg 68%
12:00 +18°C° 0 mm 2 mps 756 mmHg 64%
13:00 +18°C° 0 mm 2 mps 755 mmHg 65%
14:00 +18°C° 0 mm 2 mps 755 mmHg 65%
15:00 +19°C° 0 mm 2 mps 755 mmHg 65%
16:00 +18°C° 0 mm 2 mps 755 mmHg 72%
17:00 +17°C° 0 mm 2 mps 755 mmHg 78%
18:00 +15°C° 0 mm 2 mps 755 mmHg 85%
19:00 +15°C° 0 mm 2 mps 755 mmHg 88%
20:00 +14°C° 0 mm 2 mps 755 mmHg 91%
21:00 +13°C° 0 mm 2 mps 755 mmHg 94%
22:00 +13°C° 0 mm 2 mps 755 mmHg 95%
23:00 +13°C° 0 mm 1 mps 755 mmHg 95%
Show more